Home   Weather   Schweinfurt   Past weeks

Flag for Germany Past Weather in Schweinfurt, Bavaria, Germany — Yesterday and Last 2 Weeks

Now
12 °F

Clear.


Feels Like: 12 °F
Forecast: 9 / 20 °F
Wind: No wind

Location: Illesheim

Current Time: Jan 22, 2017 at 12:55:52 am

Latest Report: Jan 21, 2017 at 11:58 pm


Visibility: N/A

Pressure: 30.47 "Hg

Humidity: 85%

Dew Point: 9 °F

Location of SchweinfurtLocation

Past Weather in Schweinfurt — Graph

°F

Schweinfurt Temperature Yesterday

Maximum temperature yesterday: 30 °F (at 2:58 pm)
Minimum temperature yesterday: 8 °F (at 7:58 am)
Average temperature yesterday: 17 °F

High & Low Weather Summary for the Past Weeks

 TemperatureHumidityPressure
High41 °F (Jan 13, 2:58 am)100% (Jan 7, 10:29 pm)30.83 "Hg (Jan 7, 10:29 pm)
Low-2 °F (Jan 7, 12:58 am)46% (Jan 20, 2:58 pm)29.29 "Hg (Jan 13, 2:08 am)
Average26 °F86%30.19 "Hg
* Reported Jan 6 10:58 pm — Jan 21 10:58 pm, Schweinfurt, Weather by CustomWeather, © 2017

Note: Actual official high and low records may vary slightly from our data, if they occured in-between our weather recording intervals... More about our weather records

Advertising

Schweinfurt Weather History for the Previous 24 Hours

Scroll right to see more
 ConditionsComfort  
Time TempWeatherWind HumidityBarometerVisibility
10:58 pm
Sat, Jan 21
12 °FClear.No wind85%30.47 "HgN/A
9:58 pm15 °FClear.No wind83%30.48 "HgN/A
8:58 pm19 °FClear.3 mph79%30.49 "HgN/A
7:58 pm21 °FClear.3 mph74%30.47 "HgN/A
6:58 pm23 °FClear.No wind73%30.49 "HgN/A
5:58 pm19 °FClear.No wind79%30.49 "HgN/A
4:58 pm24 °FClear.No wind71%30.47 "HgN/A
3:58 pm28 °FSunny.3 mph64%30.47 "HgN/A
2:58 pm30 °FSunny.3 mph65%30.47 "HgN/A
1:58 pm30 °FSunny.3 mph62%30.48 "HgN/A
12:58 pm28 °FSunny.3 mph64%30.50 "HgN/A
11:58 am25 °FSunny.No wind69%30.52 "HgN/A
10:58 am19 °FSunny.No wind76%30.55 "HgN/A
9:58 am14 °FSunny.No wind80%30.56 "HgN/A
8:58 am10 °FSunny.No wind84%30.55 "HgN/A
7:58 am8 °FClear.No wind86%30.54 "HgN/A
6:58 am9 °FClear.No wind84%30.55 "HgN/A
5:58 am9 °FClear.No wind85%30.54 "HgN/A
4:58 am10 °FClear.No wind84%30.54 "HgN/A
3:58 am10 °FClear.No wind82%30.54 "HgN/A
2:58 am10 °FClear.No wind79%30.54 "HgN/A
1:58 am11 °FClear.No wind79%30.54 "HgN/A
12:58 am10 °FClear.No wind85%30.55 "HgN/A
Weather by CustomWeather, © 2017

See weather overviewHow to use our weather pages